Lexington Weather

Lexington, Massachusetts, USA

44°F
4/22/2024 9:00am 
  • Lexington Conditions: Clear
  • Temperature: 43.5°F / 6.4°CWarmer 3.2°F than last hour.
  • Dew Point: 27.5°FDecreased 0.7°Fsince last hour.
  • Relative Humidity: 53%Decreased 9.0% since last hour.
  • Wind: Calm, 10-min avg: Calm, gust: 2 mph
  • Barometer: 29.96 in Steady
  • Visibility: 10 miles
  • Rain Today: 0.00 in
  •   

Regional Weather Roundup
for Boston, MA

        
000
ASUS41 KBOX 190010
RWRBOX

REGIONAL WEATHER ROUNDUP
NATIONAL WEATHER SERVICE BOSTON/NORTON MA
800 PM EDT THU APR 18 2024

NOTE:  "FAIR" INDICATES FEW OR NO CLOUDS BELOW 12,000 FEET WITH NO 
SIGNIFICANT WEATHER AND/OR OBSTRUCTIONS TO VISIBILITY.

MAZALL-190100-
EASTERN MASSACHUSETTS
  
CITY           SKY/WX    TMP DP  RH WIND       PRES   REMARKS
BOSTON         CLOUDY    45  39  79 NE6       30.20S                  
6HR MIN TEMP:  44; 6HR MAX TEMP:  47; 6HR PCP:  0.15;                

BEVERLY        LGT RAIN  43  40  89 N5        30.19S                  
LAWRENCE       CLOUDY    44  40  85 NE6       30.21F                  
BEDFORD        CLOUDY    44  41  89 E7        30.17F                  
NORWOOD        CLOUDY    46  41  82 E3        30.19S                  
MARSHFIELD     CLOUDY    45  41  87 CALM      30.19S                  
PLYMOUTH       LGT RAIN  44  41  89 NE5       30.17R                  
TAUNTON        CLOUDY    45  41  86 VRB3      30.19R                  
NEW BEDFORD    LGT RAIN  45  43  93 N3        30.17R                  
$$

MAZALL-190100-
CAPE COD AND THE ISLANDS
  
CITY           SKY/WX    TMP DP  RH WIND       PRES   REMARKS
FALMOUTH       NOT AVBL                                               
HYANNIS        LGT RAIN  46  35  65 NE7       30.16R                  
CHATHAM        CLOUDY    46  39  76 NE9       30.17R                  
PROVINCETOWN   LGT RAIN  44  41  89 E6        30.20R                  
NANTUCKET      CLOUDY    44  41  89 NE13      30.15R                  
MARTHAS VNYRD  CLOUDY    47  39  74 NE10      30.16R                  
$$
 
MAZALL-190100-
CENTRAL AND WESTERN MASSACHUSETTS
  
CITY           SKY/WX    TMP DP  RH WIND       PRES   REMARKS
WORCESTER      CLOUDY    41  37  86 E7        30.14F                  
6HR MIN TEMP:  41; 6HR MAX TEMP:  43; 6HR PCP:  0.10;                

FITCHBURG      CLOUDY    44  40  85 CALM      30.19F                  
ORANGE         CLOUDY    44  36  73 E3        30.19R                  
SPRINGFIELD    CLOUDY    46  39  78 N7        30.17R                  
WESTFIELD      CLOUDY    45  37  73 N5        30.19R                  
NORTH ADAMS    CLOUDY    46  36  68 E9        30.16F                  
PITTSFIELD     CLOUDY    42  33  70 E3        30.14S                  
$$
 
RIZALL-190100-
RHODE ISLAND
  
CITY           SKY/WX    TMP DP  RH WIND       PRES   REMARKS
PROVIDENCE     LGT RAIN  43  40  89 NE13      30.17F                  
6HR MIN TEMP:  43; 6HR MAX TEMP:  50; 6HR PCP:  0.10;                

NEWPORT        CLOUDY    44  41  89 NE7       30.17R                  
BLOCK ISLAND   LGT RAIN  43  41  93 NE10      30.15S                  
SMITHFIELD     LGT RAIN  42  42 100 E6        30.15F                  
WESTERLY       LGT RAIN  43  40  89 NE9       30.13F                  
$$
 
CTZALL-190100-
CONNECTICUT
  
CITY           SKY/WX    TMP DP  RH WIND       PRES   REMARKS
BRADLEY INTL   CLOUDY    47  38  71 N7        30.18R                  
6HR MIN TEMP:  46; 6HR MAX TEMP:  48; 6HR PCP: TRACE;                

HARTFORD       CLOUDY    46  40  79 N5        30.18R                  
PLAINVILLE     CLOUDY    45  41  88 N5        30.18R                  
BRIDGEPORT     CLOUDY    47  39  74 N10       30.18R                  
DANBURY        CLOUDY    46  38  73 CALM      30.18R                  
GROTON         CLOUDY    45  42  89 NE9       30.14F                  
NEW HAVEN      CLOUDY    48  41  76 N9        30.17R                  
CHESTER        CLOUDY    43  43 100 N6        30.16R                  
MERIDEN        CLOUDY    46  38  73 N5        30.18R                  
WILLIMANTIC    MOCLDY    43  39  86 NE6       30.17R                  
OXFORD         CLOUDY    42  39  89 N6        30.18R                  
$$

MEZ002-015-021-024-NHZ003-005-008-011-012-014-VTZ005-008-190100-
NORTHERN NEW ENGLAND
  
CITY           SKY/WX    TMP DP  RH WIND       PRES   REMARKS
PORTLAND ME    MOCLDY    45  37  73 S5        30.21S                  
6HR MIN TEMP:  45; 6HR MAX TEMP:  50;                                

BANGOR ME      FAIR      49  33  54 S10       30.18R                  
CONCORD NH     LGT RAIN  43  40  89 CALM      30.19F                  
MANCHESTER NH  MOCLDY    45  41  86 E3        30.17F                  
NASHUA NH      LGT RAIN  44  44 100 VRB3      30.19F                  
PORTSMOUTH NH  CLOUDY    46  42  86 CALM      30.20R                  
JAFFREY NH     CLOUDY    43  39  86 CALM      30.17S                  
KEENE NH       CLOUDY    44  41  89 NW3       30.19R                  
BURLINGTON VT  CLOUDY    45  41  86 S8        30.15R                  
MT. WASHINGTON SNOW      32  32 100 W13         N/A  VSB 1/16WCI  22  
$$

NYZ052-076-190100-
EASTERN NEW YORK
  
CITY           SKY/WX    TMP DP  RH WIND       PRES   REMARKS
ALBANY         CLOUDY    47  37  68 S6        30.18R                  
6HR MIN TEMP:  46; 6HR MAX TEMP:  48; 6HR PCP: TRACE;                

NEW YORK CITY  CLOUDY    47  37  68 NE16      30.17R                  
6HR MIN TEMP:  45; 6HR MAX TEMP:  48; 6HR PCP: TRACE;                

$$
 
ANZALL-190100-
MARINE OBSERVATIONS
  
STATION/POSITION TIME  TEMP    WIND        PRES    VSBY  WAVE
                       AIR SEA DIR/SP/G                  HT/PER
                 (UTC) (F)     (DEG/KT/KT) (MB)    (MI)  (FT/S)
BOSTON BUOY      2350   44      10/  6/  8 1022.2R         2/ 4
BUZZARDS BAY     2300   46      40/ 17/ 18 1021.3R
NANTUCKET SOUND  2350   46 47   60/ 12/ 14 1021.0R         2/ 4
MASS BAY-STELLWA 2204   44 45   40/  8/ 10 1022.7F  1 7/8  2/ 4
ISLE OF SHOALS   2300   44      30/  4/  4 1022.2S
S OF BLOCK IS    2356      44                N/A           5/ 6
$$

......................KEY.........................
  SKY/WX - SKY CONDITION/PRESENT WEATHER
  TMP    - TEMPERATURE IN FAHRENHEIT
  DWPT   - DEWPOINT IN FAHRENHEIT
  RH     - RELATIVE HUMIDITY IN PERCENT
  WIND   - DIRECTION AND SPEED IN MPH
  PRES   - MEAN SEA LEVEL PRESSURE IN INCHES OF HG
  WCI    - WIND CHILL INDEX
  VSB    - VISIBILITY IN MILES
  HX     - HEAT INDEX
  TC     - TEMPERATURE IN CELSIUS
  VRB    - VARIABLE WIND DIRECTION
  N/A    - NOT AVAILABLE
  
      

Other recent Regional Weather Roundups

Mon Apr 22, 8:10am EDT

Mon Apr 22, 7:10am EDT

Mon Apr 22, 6:10am EDT

Mon Apr 22, 5:10am EDT

Mon Apr 22, 4:10am EDT

Mon Apr 22, 3:10am EDT

Mon Apr 22, 2:10am EDT

Mon Apr 22, 1:10am EDT

Mon Apr 22, 12:10am EDT

Sun Apr 21, 11:10pm EDT

Sun Apr 21, 10:10pm EDT

Sun Apr 21, 9:10pm EDT

Sun Apr 21, 8:10pm EDT

Sun Apr 21, 7:10pm EDT

Sun Apr 21, 6:10pm EDT

Sun Apr 21, 5:10pm EDT

Sun Apr 21, 4:10pm EDT

Sun Apr 21, 3:10pm EDT

Sun Apr 21, 2:10pm EDT

Sun Apr 21, 1:10pm EDT

Sun Apr 21, 12:10pm EDT

Sun Apr 21, 11:10am EDT

Sun Apr 21, 10:10am EDT

Sun Apr 21, 9:10am EDT

Sun Apr 21, 8:10am EDT

Sun Apr 21, 7:10am EDT

Sun Apr 21, 6:10am EDT

Sun Apr 21, 5:10am EDT

Sun Apr 21, 4:10am EDT

Sun Apr 21, 3:10am EDT

Sun Apr 21, 2:10am EDT

Sun Apr 21, 1:10am EDT

Sun Apr 21, 12:10am EDT

Sat Apr 20, 11:10pm EDT

Sat Apr 20, 10:10pm EDT

Sat Apr 20, 9:10pm EDT

Sat Apr 20, 8:10pm EDT

Sat Apr 20, 7:10pm EDT

Sat Apr 20, 6:10pm EDT

Sat Apr 20, 5:10pm EDT

Sat Apr 20, 4:10pm EDT

Sat Apr 20, 3:10pm EDT

Sat Apr 20, 2:10pm EDT

Sat Apr 20, 1:10pm EDT

Sat Apr 20, 12:10pm EDT

Sat Apr 20, 11:10am EDT

Sat Apr 20, 10:10am EDT

Sat Apr 20, 9:10am EDT

Sat Apr 20, 8:10am EDT

Sat Apr 20, 7:10am EDT

Sat Apr 20, 6:10am EDT

Sat Apr 20, 5:10am EDT

Sat Apr 20, 4:10am EDT

Sat Apr 20, 3:10am EDT

Sat Apr 20, 2:10am EDT

Sat Apr 20, 1:10am EDT

Sat Apr 20, 12:10am EDT

Fri Apr 19, 11:10pm EDT

Fri Apr 19, 10:10pm EDT

Fri Apr 19, 9:10pm EDT

Fri Apr 19, 8:10pm EDT

Fri Apr 19, 7:10pm EDT

Fri Apr 19, 6:10pm EDT

Fri Apr 19, 5:10pm EDT

Fri Apr 19, 4:10pm EDT

Fri Apr 19, 3:10pm EDT

Fri Apr 19, 2:10pm EDT

Fri Apr 19, 1:10pm EDT

Fri Apr 19, 12:10pm EDT

Fri Apr 19, 11:10am EDT

Fri Apr 19, 10:10am EDT

Fri Apr 19, 9:10am EDT

Fri Apr 19, 8:10am EDT

Fri Apr 19, 7:10am EDT

Fri Apr 19, 6:10am EDT

Fri Apr 19, 5:10am EDT

Fri Apr 19, 4:10am EDT

Fri Apr 19, 3:10am EDT

Fri Apr 19, 2:10am EDT

Fri Apr 19, 1:10am EDT

Fri Apr 19, 12:10am EDT

Thu Apr 18, 11:10pm EDT

Thu Apr 18, 10:10pm EDT

Thu Apr 18, 9:10pm EDT

Thu Apr 18, 7:10pm EDT

Thu Apr 18, 6:10pm EDT

Thu Apr 18, 5:10pm EDT

Thu Apr 18, 4:10pm EDT

Thu Apr 18, 3:10pm EDT

Thu Apr 18, 2:10pm EDT

Thu Apr 18, 1:10pm EDT

Thu Apr 18, 12:10pm EDT

Thu Apr 18, 11:10am EDT

Thu Apr 18, 10:10am EDT

Thu Apr 18, 9:10am EDT

Thu Apr 18, 8:10am EDT

Thu Apr 18, 7:10am EDT

Thu Apr 18, 6:10am EDT

Thu Apr 18, 5:10am EDT

Thu Apr 18, 4:10am EDT

Thu Apr 18, 3:10am EDT

Thu Apr 18, 2:10am EDT

Thu Apr 18, 1:10am EDT

Thu Apr 18, 12:10am EDT

Wed Apr 17, 11:10pm EDT

Wed Apr 17, 10:10pm EDT

Wed Apr 17, 9:10pm EDT

Wed Apr 17, 8:10pm EDT

Wed Apr 17, 7:10pm EDT

Wed Apr 17, 6:10pm EDT

Wed Apr 17, 5:10pm EDT

Wed Apr 17, 4:10pm EDT

Wed Apr 17, 3:10pm EDT

Wed Apr 17, 2:10pm EDT

Wed Apr 17, 1:10pm EDT

Wed Apr 17, 12:10pm EDT

Wed Apr 17, 11:10am EDT

Wed Apr 17, 10:10am EDT

Wed Apr 17, 9:10am EDT

Wed Apr 17, 8:10am EDT

Wed Apr 17, 7:10am EDT

Wed Apr 17, 6:10am EDT

Wed Apr 17, 5:10am EDT

Wed Apr 17, 4:10am EDT

Wed Apr 17, 3:10am EDT

Wed Apr 17, 2:10am EDT

Wed Apr 17, 1:10am EDT

Wed Apr 17, 12:10am EDT

Tue Apr 16, 11:10pm EDT

Tue Apr 16, 10:10pm EDT

Tue Apr 16, 9:10pm EDT

Tue Apr 16, 8:10pm EDT

Tue Apr 16, 7:10pm EDT

Tue Apr 16, 6:10pm EDT

Tue Apr 16, 5:10pm EDT

Tue Apr 16, 4:10pm EDT

Tue Apr 16, 3:10pm EDT

Tue Apr 16, 2:10pm EDT

Tue Apr 16, 1:10pm EDT

Tue Apr 16, 12:10pm EDT

Tue Apr 16, 11:10am EDT

Tue Apr 16, 10:10am EDT

Tue Apr 16, 9:10am EDT

Tue Apr 16, 8:10am EDT

Tue Apr 16, 7:10am EDT

Tue Apr 16, 6:10am EDT

Tue Apr 16, 5:10am EDT

Tue Apr 16, 4:10am EDT

Tue Apr 16, 3:10am EDT

Tue Apr 16, 2:10am EDT

Tue Apr 16, 1:10am EDT

Tue Apr 16, 12:10am EDT

Mon Apr 15, 11:10pm EDT

Mon Apr 15, 10:10pm EDT

Mon Apr 15, 9:10pm EDT

Mon Apr 15, 8:10pm EDT

Mon Apr 15, 7:10pm EDT

Mon Apr 15, 6:10pm EDT

Mon Apr 15, 5:10pm EDT

Mon Apr 15, 4:10pm EDT

Mon Apr 15, 3:10pm EDT

Mon Apr 15, 2:10pm EDT

Mon Apr 15, 1:10pm EDT

Mon Apr 15, 12:10pm EDT

Mon Apr 15, 11:10am EDT

Mon Apr 15, 10:10am EDT

Mon Apr 15, 9:10am EDT